Showing default

HULIANWANG DIGUI-38, 64959

Orbit data source: Space-Track

HULIANWANG DIGUI-38, 64959 is a payload satellite owned by Zhongguo Xingwang (CN) in LEO that was launched on Sun, 27 Jul 2025 UTC via a CHANG ZHENG 6A launch vehicle from the Taiyaun Space Center, China (TSC). Payload-class satellites include a variety of spacecraft equipped with specific instruments for various scientific and technological missions. These include communications satellites like Starlink; space stations such as the ISS; scientific satellites like the Hubble; Earth observation satellites from companies like Planet Labs, Umbra, and HawkEye 360; GPS; miniature CubeSats for education and research; and military/defense satellites.

Loading next visibility...
Identifier
64959, 2025-159D
Orbit
LEO
Country
Flag of CNCN / PRC
Related business
Manufacturer
CAST
Mission
Operational Civil Communications
Bus & Motor
XINGWANG C, Unknown motor
Mass
~700 kg wet, ~700 kg dry
Launch date (UTC)
2025-07-27 (1 year ago)
Launch vehicle
CHANG ZHENG 6A
Launch site
Taiyaun Space Center, China (TSC)
Object type
Payload
Rocket body
Debris
Shape & HBR
Box + 2 Pan, 5.0 m
Radar Cross Section
5.935 m², Large (>1 m²)

Expand to show TLE details & history
Last TLE update: 5 hours ago

TLE from 5 hours ago
0 HULIANWANG DIGUI-38
1 64959U 25159D   26265.91643831 -.00000073  00000-0 -20534-3 0  9990
2 64959  86.4922 249.4633 0002018  86.5752 273.5613 13.24401366 56065
Epoch: 2026-09-22T21:59Z
TLE epoch observation values (Epoch: 2026-09-22T21:59:40.269Z)
Latitude
-0.00003°
Longitude
-82.22954°
Altitude
1,170.755 km
Speed
7.268 km/s
True Right ascension
16h 37m 51s
True Declination
0° 00' 00"
Sunlit
Object was in daylight at epoch
Visualization orbit readout
Latitude
Unknown
Longitude
Unknown
Altitude
Unknown
Speed
Unknown
Apparent Right ascension
Unknown
Apparent Declination
Unknown
Sunlit
N/A
Visualization observer readout
Local Sidereal Time
20:12:07
Azimuth
Unknown
Elevation
Unknown
Doppler factor
Unknown
Orbital elements
Apogee altitude
1,166.597 km
Perigee altitude
1,163.553 km
Semi-major axis
7,543.212 km
Eccentricity
0.0002
Inclination
86.4922°
RAAN
249.4633°
Arg. of periapsis
86.5752°
True anomaly
273.53822°
Mean anomaly
273.5613°
Eccentric anomaly
273.54976°
Mean motion
3.3129 °/min
Orbital period
108.67 mins
BSTAR
-0.00020534
Loading maneuver chart data...
Computing Atmospheric mass density...
Loading historical data...
Loading historical data...
Loading historical data...
Loading historical data...
Loading historical data...
Loading historical data...
Loading historical data...

Documentation

Showing up to 5 results
|